User: anonymous   Login
Location: The D'Auria's Ocala Star Observatory
(29.0276°N, 82.1742°W)
Time: 18:59:37
(UTC-05:00)
Language:

Abrixas rocket - Orbit

View from above orbital plane
View from above orbital plane
View from above satellite
View from above satellite

Ground track
Ground track

The orbit data is extracted from the following two-line orbital elements,

1 25723U 99022C   14327.54647880  .00017986  00000-0  53879-3 0  8085
2 25723 048.4242 059.4004 0017090 256.0438 228.1972 15.34334288861593
Epoch (UTC): 23 November 2014 13:06:55
Eccentricity: 0.0017090
inclination: 48.4242°
perigee height: 451 km
apogee height: 474 km
right ascension of ascending node: 59.4004°
argument of perigee: 256.0438°
revolutions per day: 15.34334288
mean anomaly at epoch: 228.1972°
orbit number at epoch: 86159

The dashed part of the orbit path shows where the satellite is in the earth's shadow,  

DLR